TimePDT,TemperatureF,Dew PointF,Humidity,Sea Level PressureIn,VisibilityMPH,Wind Direction,Wind SpeedMPH,Gust SpeedMPH,PrecipitationIn,Events,Conditions,WindDirDegrees,DateUTC
12:58 AM,50.2,49.1,96,30.19,10.0,Calm,Calm,-,N/A,,Overcast,0,2013-03-15 07:58:00
1:58 AM,50.0,49.3,97,30.19,10.0,Calm,Calm,-,N/A,,Overcast,0,2013-03-15 08:58:00
2:50 AM,50.0,50.0,100,30.19,10.0,Calm,Calm,-,N/A,Rain,Light Rain,0,2013-03-15 09:50:00
2:58 AM,49.6,49.3,99,30.21,10.0,Calm,Calm,-,0.00,Rain,Light Rain,0,2013-03-15 09:58:00
3:00 AM,50.0,48.2,94,30.19,10.0,Calm,Calm,-,N/A,,Overcast,0,2013-03-15 10:00:00
3:19 AM,50.0,48.2,94,30.19,10.0,Calm,Calm,-,N/A,Rain,Light Rain,0,2013-03-15 10:19:00
3:28 AM,50.0,48.2,94,30.18,10.0,Calm,Calm,-,N/A,,Overcast,0,2013-03-15 10:28:00
3:55 AM,50.0,50.0,100,30.19,10.0,WNW,4.6,-,N/A,Rain,Light Rain,290,2013-03-15 10:55:00
3:58 AM,50.0,49.6,99,30.21,10.0,WNW,3.5,-,0.00,Rain,Light Rain,290,2013-03-15 10:58:00
4:08 AM,50.0,50.0,100,30.18,7.0,West,2.3,-,N/A,Rain,Light Rain,280,2013-03-15 11:08:00
4:34 AM,48.2,48.2,100,30.18,10.0,Calm,Calm,-,N/A,,Overcast,0,2013-03-15 11:34:00
4:50 AM,50.0,48.2,94,30.18,10.0,Calm,Calm,-,N/A,,Light Drizzle,0,2013-03-15 11:50:00
4:58 AM,49.1,48.7,99,30.19,7.0,Calm,Calm,-,0.03,,Light Drizzle,0,2013-03-15 11:58:00
5:03 AM,48.2,48.2,100,30.17,8.0,Calm,Calm,-,N/A,,Overcast,0,2013-03-15 12:03:00
5:58 AM,48.9,48.7,99,30.21,10.0,Calm,Calm,-,0.01,,Overcast,0,2013-03-15 12:58:00
6:58 AM,48.9,48.6,99,30.21,10.0,Calm,Calm,-,N/A,,Overcast,0,2013-03-15 13:58:00
7:58 AM,48.9,48.7,99,30.22,10.0,Calm,Calm,-,N/A,,Overcast,0,2013-03-15 14:58:00
8:58 AM,51.1,50.9,99,30.22,10.0,SW,5.8,-,N/A,,Overcast,230,2013-03-15 15:58:00
9:31 AM,51.8,50.0,94,30.21,10.0,WSW,5.8,-,N/A,,Light Drizzle,240,2013-03-15 16:31:00
9:40 AM,51.8,50.0,94,30.21,10.0,SW,5.8,-,N/A,,Overcast,230,2013-03-15 16:40:00
9:44 AM,51.8,50.0,94,30.22,10.0,WSW,3.5,-,N/A,Rain,Light Rain,240,2013-03-15 16:44:00
9:49 AM,51.8,50.0,94,30.22,10.0,SW,3.5,-,N/A,Rain,Light Rain,230,2013-03-15 16:49:00
9:57 AM,51.8,51.8,100,30.22,10.0,WSW,5.8,-,N/A,,Overcast,240,2013-03-15 16:57:00
9:58 AM,51.8,51.8,100,30.24,10.0,WSW,5.8,-,0.00,,Overcast,240,2013-03-15 16:58:00
10:08 AM,51.8,51.8,100,30.22,10.0,SW,3.5,-,N/A,,Overcast,230,2013-03-15 17:08:00
10:58 AM,54.0,51.1,90,30.24,10.0,SSW,5.8,-,0.00,,Mostly Cloudy,200,2013-03-15 17:58:00
11:03 AM,53.6,50.0,88,30.22,10.0,Variable,5.8,-,N/A,,Overcast,0,2013-03-15 18:03:00
11:30 AM,55.4,50.0,82,30.21,10.0,SSW,5.8,-,N/A,,Overcast,210,2013-03-15 18:30:00
11:36 AM,55.4,50.0,82,30.21,10.0,SSW,8.1,-,N/A,,Overcast,210,2013-03-15 18:36:00
11:46 AM,55.4,50.0,82,30.21,10.0,SSW,4.6,-,N/A,,Overcast,210,2013-03-15 18:46:00
11:51 AM,55.4,50.0,82,30.21,10.0,South,4.6,-,N/A,,Overcast,190,2013-03-15 18:51:00
11:58 AM,55.4,50.0,82,30.22,10.0,SSW,3.5,-,N/A,,Overcast,210,2013-03-15 18:58:00
12:30 PM,55.4,50.0,82,30.22,10.0,SW,4.6,-,N/A,,Overcast,220,2013-03-15 19:30:00
12:58 PM,56.3,49.3,77,30.24,10.0,SW,5.8,-,N/A,,Mostly Cloudy,230,2013-03-15 19:58:00
1:58 PM,56.8,49.8,77,30.22,10.0,West,3.5,-,N/A,,Overcast,260,2013-03-15 20:58:00
2:58 PM,58.5,49.8,73,30.20,10.0,WSW,3.5,-,N/A,,Overcast,250,2013-03-15 21:58:00
3:03 PM,57.2,50.0,77,30.19,10.0,WSW,5.8,-,N/A,,Overcast,240,2013-03-15 22:03:00
3:19 PM,57.2,50.0,77,30.18,10.0,SSW,5.8,-,N/A,,Overcast,200,2013-03-15 22:19:00
3:58 PM,57.7,49.8,75,30.19,10.0,WSW,6.9,-,N/A,,Mostly Cloudy,250,2013-03-15 22:58:00
4:00 PM,57.2,50.0,77,30.18,10.0,West,6.9,-,N/A,Rain,Light Rain,260,2013-03-15 23:00:00
4:44 PM,55.4,51.8,88,30.18,10.0,NNW,1.2,-,N/A,,Overcast,330,2013-03-15 23:44:00
4:58 PM,55.6,52.3,89,30.19,10.0,West,4.6,-,0.00,,Mostly Cloudy,270,2013-03-15 23:58:00
5:01 PM,55.4,51.8,88,30.18,10.0,WSW,6.9,-,N/A,Rain,Light Rain,240,2013-03-16 00:01:00
5:04 PM,55.4,51.8,88,30.18,4.0,SW,6.9,-,N/A,Rain,Light Rain,230,2013-03-16 00:04:00
5:09 PM,53.6,51.8,94,30.18,1.8,WSW,6.9,-,N/A,Rain,Light Rain,250,2013-03-16 00:09:00
5:14 PM,53.6,51.8,94,30.18,1.8,West,2.3,-,N/A,Rain,Rain,280,2013-03-16 00:14:00
5:19 PM,53.6,51.8,94,30.18,2.5,WNW,2.3,-,N/A,Rain,Rain,300,2013-03-16 00:19:00
5:25 PM,53.6,51.8,94,30.18,4.0,Calm,Calm,-,N/A,Rain,Light Rain,0,2013-03-16 00:25:00
5:43 PM,53.6,51.8,94,30.18,10.0,West,3.5,-,N/A,,Mostly Cloudy,280,2013-03-16 00:43:00
5:58 PM,52.5,51.6,97,30.20,10.0,West,5.8,-,0.11,,Mostly Cloudy,260,2013-03-16 00:58:00
6:12 PM,51.8,51.8,100,30.17,10.0,West,6.9,-,N/A,,Light Drizzle,270,2013-03-16 01:12:00
6:15 PM,51.8,51.8,100,30.17,10.0,West,6.9,-,N/A,,Overcast,270,2013-03-16 01:15:00
6:24 PM,51.8,51.8,100,30.17,10.0,West,6.9,-,N/A,,Light Drizzle,280,2013-03-16 01:24:00
6:55 PM,51.8,51.8,100,30.17,10.0,WNW,1.2,-,N/A,,Mostly Cloudy,300,2013-03-16 01:55:00
6:58 PM,51.6,51.4,99,30.19,10.0,West,2.3,-,0.00,,Mostly Cloudy,270,2013-03-16 01:58:00
7:09 PM,51.8,51.8,100,30.17,10.0,West,3.5,-,N/A,Rain,Light Rain,260,2013-03-16 02:09:00
7:18 PM,51.8,51.8,100,30.17,10.0,WSW,2.3,-,N/A,,Overcast,250,2013-03-16 02:18:00
7:23 PM,51.8,51.8,100,30.17,10.0,WSW,2.3,-,N/A,Rain,Light Rain,250,2013-03-16 02:23:00
7:35 PM,51.8,51.8,100,30.16,10.0,Calm,Calm,-,N/A,,Overcast,0,2013-03-16 02:35:00
7:58 PM,51.1,50.9,99,30.19,10.0,Calm,Calm,-,0.00,,Overcast,0,2013-03-16 02:58:00
8:03 PM,51.8,50.0,94,30.17,10.0,Calm,Calm,-,N/A,,Overcast,0,2013-03-16 03:03:00
8:08 PM,51.8,50.0,94,30.17,10.0,Calm,Calm,-,N/A,,Overcast,0,2013-03-16 03:08:00
8:13 PM,51.8,50.0,94,30.17,10.0,Calm,Calm,-,N/A,,Overcast,0,2013-03-16 03:13:00
8:18 PM,51.8,50.0,94,30.17,10.0,North,1.2,-,N/A,,Overcast,350,2013-03-16 03:18:00
8:48 PM,50.0,50.0,100,30.17,10.0,West,2.3,-,N/A,,Overcast,280,2013-03-16 03:48:00
8:53 PM,50.0,50.0,100,30.17,10.0,West,4.6,-,N/A,,Overcast,270,2013-03-16 03:53:00
8:58 PM,50.0,50.0,100,30.19,10.0,West,4.6,-,N/A,,Overcast,270,2013-03-16 03:58:00
9:03 PM,50.0,50.0,100,30.17,10.0,West,5.8,-,N/A,,Overcast,260,2013-03-16 04:03:00
9:14 PM,50.0,48.2,94,30.18,10.0,WSW,3.5,-,N/A,,Overcast,250,2013-03-16 04:14:00
9:19 PM,50.0,48.2,94,30.17,10.0,WNW,1.2,-,N/A,,Overcast,300,2013-03-16 04:19:00
9:29 PM,50.0,48.2,94,30.17,10.0,WSW,3.5,-,N/A,,Overcast,240,2013-03-16 04:29:00
9:34 PM,50.0,48.2,94,30.17,10.0,SW,2.3,-,N/A,,Overcast,230,2013-03-16 04:34:00
9:40 PM,50.0,48.2,94,30.17,10.0,SW,2.3,-,N/A,,Overcast,230,2013-03-16 04:40:00
9:58 PM,49.1,48.7,99,30.19,10.0,WSW,2.3,-,N/A,,Overcast,240,2013-03-16 04:58:00
10:58 PM,48.6,48.4,99,30.18,10.0,West,3.5,-,N/A,,Overcast,270,2013-03-16 05:58:00
11:58 PM,47.7,47.1,98,30.18,10.0,SSW,2.3,-,N/A,,Overcast,200,2013-03-16 06:58:00